Probability
3 13 16 0 0 0 0 0 0 0 0 0 0 0 0 0 0 0 0 0 0 0 0 0 0 0 0 0 0 0 0 0 0 0 0 0 0 0 0 0 0 3 6
3 6 3 3 0 0 0 0 0 0 0 0 0 0 0 0 0 0 0 0 0 0 0 0 0 0 0 0 0 0 0 0 0 0 0 0 0 0 0 0 0 0 3
3 3 3 0 0 0 0 0 0 0 0 0 0 0 0 0 0 0 0 0 0 0 0 0 0 0 0 0 0 0 0 0 0 0 0 0 0 0 0 0 0 0 0
0 0 3 0 0 0 0 0 0 0 0 0 0 0 0 0 0 0 0 0 0 0 0 0 0 0 0 0 0 0 0 0 0 0 0 0 0 0 0 0 0 0 0
0 0 0 0 0 0 0 0 0 0 0 0 0 0 0 0 0 0 0 0 0 0 0 0 0 0 0 0 0 0 0 0 0 0 0 0 0 0 0 0 0 0 0
0 0 0 0 0 0 0 0 0 0 0 0 0 0 0 0 0 0 0 0 0 0 0 0 0 0 0 0 0 0 0 0 0 0 0 0 0 0 0 0 0 0 0
0 0 0 0 0 0 0 0 0 0 0 0 0 0 0 0 0 0 0 0 0 0 0 0 0 0 0 0 0 0 0 0 0 0 0 0 0 0 0 0 0 0 0
0 0 0 0 0 0 0 0 0 0 0 0 0 0 0 0 0 0 0 0 0 0 0 0 0 0 0 0 0 0 0 0 0 0 0 0 0 0 0 0 0 0 0
0 0 0 0 0 0 0 0 0 0 0 0 0 0 0 0 0 0 0 0 0 0 0 0 0 0 0 0 0 0 0 0 0 0 0 0 0 0 0 0 0 0 0
0 0 0 0 0 0 0 0 0 0 0 0 0 0 0 0 0 0 0 0 0 0 0 0 0 0 0 0 0 0 0 0 0 0 0 0 0 0 0 0 0 0 0
0 0 0 0 0 0 0 0 0 0 0 0 0 0 0 0 0 0 0 0 0 0 0 0 0 0 0 0 0 0 0 0 0 0 0 0 0 0 0 0 0 0 0
0 0 0 0 0 0 0 0 0 0 0 0 0 0 0 0 0 0 0 0 0 0 0 0 0 0 0 0 0 0 0 0 0 0 0 0 0 0 0 0 0 0 0
0 0 0 0 0 0 0 0 0 0 0 0 0 0 0 0 0 0 0 0 0 0 0 0 0 0 0 0 0 0 0 0 0 0 0 0 0 0 0 0 0 0 0
0 0 0 0 0 0 0 0 0 0 0 0 0 0 0 0 0 0 0 0 0 0 0 0 0 0 0 0 0 0 0 0 0 0 0 0 0 0 0 0 0 0 0
0 0 0 0 0 0 0 0 0 0 0 0 0 0 0 0 0 0 0 0 0 0 0 0 0 0 0 0 0 0 0 0 0 0 0 0 0 0 0 0 0 0 0
0 0 0 0 0 0 0 0 0 0 0 0 0 0 0 0 0 0 0 0 0 0 0 0 0 0 0 0 0 0 0 0 0 0 0 0 0 0 0 0 0 0 0
0 0 0 0 0 0 0 0 0 0 0 0 0 0 0 0 0 0 0 0 0 0 0 0 0 0 0 0 0 0 0 0 0 0 0 0 0 0 0 0 0 0 0
0 0 0 0 0 0 0 0 0 0 0 0 0 0 0 0 0 0 0 0 0 0 0 0 0 0 0 0 0 0 0 0 0 0 0 0 0 0 0 0 0 0 0
0 0 0 0 0 0 0 0 0 0 0 0 0 0 0 0 0 0 0 0 0 0 0 0 0 0 0 0 0 0 0 0 0 0 0 0 0 0 0 0 0 0 0
0 0 0 0 0 0 0 0 0 0 0 0 0 0 0 0 0 0 0 0 0 0 0 0 0 0 0 0 0 0 0 0 0 0 0 0 0 0 0 0 0 0 0
0 0 0 0 0 0 0 0 0 0 0 0 0 0 0 0 0 0 0 0 0 0 0 0 0 0 0 0 0 0 0 0 0 0 0 0 0 0 0 0 0 0 0
0 0 0 0 0 0 0 0 0 0 0 0 0 0 0 0 0 0 0 0 0 0 0 0 0 0 0 0 0 0 0 0 0 0 0 0 0 0 0 0 0 0 0
0 0 0 0 0 0 0 0 0 0 0 0 0 0 0 0 0 0 0 0 0 0 0 0 0 0 0 0 0 0 0 0 0 0 0 0 0 0 0 0 0 0 0
0 0 0 0 0 0 0 0 0 0 0 0 0 0 0 0 0 0 0 0 0 0 0 0 0 0 0 0 0 0 0 0 0 0 0 0 0 0 0 0 0 0 0
0 0 0 0 0 0 0 0 0 0 0 0 0 0 0 0 0 0 0 0 0 0 0 0 0 0 0 0 0 0 0 0 0 0 0 0 0 0 0 0 0 0 0
0 0 0 0 0 0 0 0 0 0 0 0 0 0 0 0 0 0 0 0 0 0 0 0 0 0 0 0 0 0 0 0 0 0 0 0 0 0 0 0 0 0 0
Height
5858 5857 5856 5855 5854 5852 5851 5850 5848 5846 5844 5841 5838 5836 5833 5830 5828 5825 5822 5820 5818 5816 5814 5812 5810 5808 5807 5806 5805 5805 5805 5805 5805 5806 5808 5809 5810 5811 5813 5814 5816 5818 5821
5854 5854 5853 5852 5850 5849 5847 5846 5844 5841 5838 5836 5833 5829 5826 5823 5820 5817 5815 5812 5810 5807 5805 5803 5801 5799 5798 5796 5796 5795 5795 5795 5795 5796 5798 5799 5802 5802 5804 5805 5807 5810 5812
5852 5851 5850 5849 5847 5846 5844 5841 5839 5836 5833 5830 5827 5823 5820 5816 5813 5810 5807 5805 5802 5799 5797 5795 5793 5790 5789 5787 5786 5786 5786 5785 5785 5786 5788 5789 5791 5793 5795 5796 5798 5801 5803
5850 5849 5848 5846 5845 5843 5840 5838 5835 5832 5829 5825 5821 5818 5814 5810 5807 5803 5800 5797 5794 5791 5789 5786 5784 5782 5780 5778 5777 5776 5776 5776 5776 5776 5777 5779 5781 5783 5785 5787 5788 5791 5794
5848 5847 5846 5844 5842 5840 5838 5835 5832 5828 5824 5820 5816 5812 5808 5804 5800 5796 5792 5789 5785 5782 5780 5777 5775 5772 5770 5768 5767 5766 5766 5766 5766 5766 5767 5768 5770 5772 5775 5777 5779 5782 5785
5847 5846 5844 5843 5840 5838 5835 5831 5828 5824 5819 5815 5810 5806 5801 5797 5792 5788 5784 5781 5777 5774 5771 5768 5765 5763 5761 5759 5757 5756 5755 5755 5755 5756 5756 5758 5760 5762 5764 5767 5769 5772 5776
5846 5844 5842 5840 5838 5835 5831 5827 5823 5818 5813 5808 5803 5799 5794 5790 5785 5781 5777 5773 5769 5765 5762 5758 5755 5753 5750 5748 5747 5745 5745 5745 5745 5745 5746 5747 5749 5751 5754 5757 5760 5762 5766
5843 5842 5839 5837 5834 5830 5826 5822 5817 5812 5807 5802 5797 5792 5788 5783 5779 5774 5770 5766 5761 5757 5753 5749 5745 5742 5740 5738 5736 5734 5734 5733 5734 5734 5735 5736 5738 5740 5743 5746 5749 5753 5756
5841 5838 5836 5832 5829 5825 5820 5816 5810 5805 5800 5796 5791 5786 5781 5777 5772 5767 5762 5757 5753 5748 5743 5739 5735 5732 5729 5727 5725 5723 5722 5721 5722 5722 5723 5725 5726 5728 5731 5735 5739 5743 5746
5837 5834 5831 5827 5823 5819 5814 5809 5804 5800 5795 5790 5785 5780 5775 5770 5765 5760 5754 5749 5744 5739 5734 5730 5726 5722 5719 5716 5714 5712 5711 5710 5710 5710 5711 5713 5714 5717 5719 5723 5727 5731 5736
5833 5829 5826 5822 5818 5813 5808 5804 5799 5794 5790 5785 5779 5774 5769 5763 5758 5752 5746 5741 5735 5730 5725 5720 5715 5711 5708 5704 5702 5700 5699 5698 5697 5698 5699 5700 5702 5705 5707 5711 5715 5719 5724
5827 5824 5820 5816 5812 5807 5803 5798 5794 5789 5784 5779 5773 5767 5762 5756 5750 5744 5738 5732 5726 5721 5715 5710 5705 5700 5696 5693 5690 5688 5686 5685 5685 5685 5686 5687 5689 5692 5695 5699 5703 5707 5712
5822 5818 5815 5811 5807 5802 5798 5793 5788 5783 5778 5772 5767 5761 5755 5748 5742 5736 5730 5724 5717 5711 5705 5700 5694 5690 5686 5682 5678 5676 5674 5673 5672 5672 5672 5674 5676 5679 5682 5685 5690 5695 5700
5817 5813 5810 5806 5802 5797 5793 5788 5783 5777 5772 5766 5760 5754 5747 5741 5734 5728 5721 5714 5708 5701 5695 5689 5684 5679 5674 5670 5666 5664 5662 5660 5659 5658 5659 5660 5662 5664 5668 5672 5676 5681 5687
5812 5809 5805 5801 5797 5792 5787 5782 5777 5771 5765 5759 5753 5746 5740 5733 5726 5719 5712 5705 5698 5692 5685 5679 5673 5668 5663 5659 5655 5652 5649 5647 5645 5645 5645 5645 5647 5649 5653 5657 5662 5667 5673
5807 5804 5800 5796 5792 5787 5782 5776 5771 5765 5759 5752 5746 5739 5732 5725 5718 5710 5703 5696 5689 5682 5675 5669 5663 5657 5652 5647 5643 5639 5636 5633 5632 5631 5630 5631 5632 5634 5637 5642 5647 5652 5659
5803 5799 5795 5791 5786 5781 5776 5770 5765 5758 5752 5745 5738 5732 5724 5717 5709 5702 5694 5687 5679 5672 5665 5659 5652 5646 5641 5635 5630 5626 5623 5620 5618 5616 5616 5616 5617 5619 5622 5626 5631 5637 5644
5798 5794 5790 5785 5781 5776 5770 5764 5758 5752 5745 5738 5731 5724 5716 5709 5701 5693 5685 5677 5670 5662 5655 5648 5642 5635 5629 5623 5618 5613 5610 5606 5604 5602 5601 5601 5602 5603 5606 5610 5616 5622 5629
5792 5788 5784 5780 5775 5770 5764 5758 5752 5745 5738 5731 5723 5716 5708 5701 5693 5685 5676 5668 5660 5653 5645 5638 5631 5624 5618 5612 5606 5601 5597 5593 5590 5587 5586 5586 5587 5588 5591 5595 5600 5606 5613
5787 5783 5778 5774 5769 5763 5757 5751 5745 5738 5731 5723 5716 5708 5700 5692 5684 5676 5668 5659 5651 5643 5635 5628 5621 5614 5607 5601 5595 5590 5585 5581 5577 5574 5572 5571 5572 5573 5575 5579 5585 5591 5597
5781 5777 5772 5768 5762 5757 5751 5744 5738 5731 5724 5716 5708 5700 5692 5684 5676 5668 5659 5651 5643 5635 5627 5619 5611 5604 5597 5591 5584 5579 5573 5569 5565 5562 5560 5558 5558 5559 5561 5565 5569 5575 5581
5775 5771 5766 5761 5756 5750 5744 5737 5731 5724 5716 5709 5701 5693 5684 5676 5668 5659 5651 5642 5634 5626 5618 5610 5602 5595 5587 5581 5574 5568 5563 5558 5555 5551 5549 5547 5546 5547 5548 5551 5555 5560 5566
5768 5763 5759 5753 5748 5742 5736 5730 5723 5716 5709 5701 5693 5685 5676 5667 5659 5651 5642 5634 5626 5618 5610 5602 5595 5587 5579 5572 5565 5559 5553 5549 5545 5541 5539 5537 5535 5535 5536 5537 5541 5546 5552
5760 5756 5751 5746 5740 5734 5728 5722 5715 5708 5701 5693 5685 5677 5668 5659 5651 5642 5634 5626 5619 5611 5603 5595 5587 5579 5572 5564 5557 5551 5546 5541 5537 5533 5530 5528 5526 5525 5525 5527 5529 5534 5540
5752 5748 5743 5738 5732 5726 5720 5714 5707 5700 5692 5685 5677 5669 5660 5652 5643 5635 5626 5619 5611 5603 5596 5588 5581 5573 5566 5558 5551 5545 5539 5534 5530 5526 5523 5521 5519 5518 5517 5518 5521 5525 5531
5744 5739 5734 5729 5724 5718 5712 5705 5699 5692 5684 5676 5668 5660 5652 5644 5636 5628 5620 5611 5604 5597 5589 5582 5575 5567 5560 5552 5546 5540 5535 5530 5525 5522 5519 5517 5515 5513 5513 5513 5515 5519 5525
Wind_Speed
18 17 16 16 17 18 19 21 22 23 25 26 27 28 29 30 31 32 32 33 33 34 34 34 34 34 34 34 34 34 34 35 34 34 33 33 32 32 32 32 31 30 30
15 15 16 16 17 18 19 21 23 24 26 27 29 30 31 32 33 33 33 33 33 33 33 33 34 34 34 34 34 34 35 35 35 34 34 33 33 34 33 33 33 32 31
13 14 14 15 17 18 20 22 24 26 27 29 30 31 32 33 33 33 33 33 32 32 32 32 33 33 33 34 34 34 34 35 35 35 34 34 34 34 35 34 34 34 32
10 12 14 16 17 19 21 23 25 27 28 30 30 31 31 32 32 33 33 33 33 32 32 33 33 33 34 34 34 34 34 34 35 35 35 35 34 35 35 35 35 35 34
10 12 14 16 18 20 22 23 25 26 27 28 29 29 30 30 30 31 31 32 32 32 32 32 33 33 34 34 35 34 34 35 35 36 36 35 35 35 35 35 35 35 35
12 14 15 17 18 20 22 23 24 25 26 27 28 28 28 29 29 30 30 31 32 33 33 33 33 33 34 34 35 35 35 35 35 36 36 36 35 35 35 35 36 37 36
12 15 16 17 18 20 21 23 24 25 26 27 28 28 28 29 29 30 30 31 32 33 34 34 34 34 34 35 35 35 36 36 36 36 36 37 36 36 36 35 36 37 37
13 14 15 16 18 20 22 24 25 26 27 28 29 29 29 29 30 31 31 32 33 33 34 35 35 35 36 35 35 36 36 36 37 37 37 37 38 38 37 37 37 37 38
13 14 15 17 19 21 24 25 27 28 29 29 30 30 30 31 32 33 34 34 34 35 35 35 35 36 36 36 36 36 36 37 37 38 38 39 39 39 39 38 38 38 39
13 14 16 18 21 24 26 27 29 30 31 31 31 32 33 33 34 35 36 36 36 36 36 36 36 36 36 36 36 36 36 37 38 38 39 40 40 40 40 40 40 40 40
14 16 18 21 23 26 28 29 30 32 32 33 33 34 35 36 37 37 38 38 38 38 37 37 37 37 37 37 37 37 37 37 38 39 39 39 40 41 41 42 42 41 41
17 19 21 23 25 27 29 31 32 33 34 35 35 36 37 38 38 39 40 40 39 39 39 38 37 37 37 37 37 37 37 37 38 39 39 40 41 42 42 42 43 43 43
19 21 23 25 27 29 31 32 34 35 36 37 37 38 39 39 40 41 41 41 40 40 40 38 37 37 36 37 37 37 36 37 37 38 39 40 41 42 43 44 44 45 45
21 23 24 26 28 30 32 34 35 36 37 38 39 39 40 41 41 42 42 42 41 41 40 39 38 37 37 37 36 36 36 36 37 38 39 40 41 42 44 45 45 46 47
23 24 26 27 29 31 33 35 37 38 39 39 40 41 42 42 43 43 43 43 42 41 40 39 39 38 37 37 36 36 37 37 37 37 38 40 41 42 44 45 46 47 48
24 25 26 28 31 33 35 37 38 39 40 40 41 42 43 43 44 44 44 44 43 42 41 40 39 38 38 37 37 37 37 37 37 38 39 40 41 42 44 45 47 48 49
24 26 28 30 32 34 37 38 39 40 41 41 42 43 43 44 44 45 45 44 44 43 42 41 40 39 38 38 38 37 37 36 37 37 38 39 40 41 43 45 47 49 51
26 27 29 31 34 36 38 39 40 41 41 42 43 43 44 44 45 45 45 45 44 43 42 41 40 39 39 38 37 37 36 36 36 37 38 38 39 40 42 44 46 49 52
27 28 30 33 35 37 38 40 41 41 42 43 44 44 44 45 46 46 46 45 44 43 42 41 40 39 39 38 37 36 35 35 35 36 37 37 38 39 41 43 45 48 51
28 30 32 34 36 38 39 40 41 42 43 43 44 45 45 46 46 47 46 45 44 43 42 41 41 40 38 37 36 36 35 34 33 34 34 35 36 37 39 42 44 46 50
30 31 34 36 37 39 40 40 42 43 43 44 45 46 47 47 47 47 46 45 44 43 42 41 40 39 38 37 36 35 34 32 31 31 31 31 33 34 36 39 42 46 49
32 33 35 37 38 39 40 41 42 44 45 46 46 47 47 48 47 46 46 45 43 42 41 40 39 39 38 37 35 34 32 31 29 28 28 28 30 32 34 37 40 44 47
33 35 37 38 40 40 41 42 43 45 46 47 48 48 48 48 47 46 45 44 43 41 41 40 39 38 37 36 33 31 30 28 27 25 25 25 26 27 29 33 36 41 45
35 37 38 40 41 42 42 44 45 46 47 49 49 49 49 48 47 46 45 43 41 40 40 39 38 37 36 34 31 29 27 26 24 23 22 22 21 22 24 27 30 35 41
37 38 39 41 42 43 44 46 47 48 49 50 50 50 48 47 46 45 44 42 40 39 39 38 37 36 34 33 30 27 25 24 22 20 18 17 16 17 19 22 25 30 34
38 40 41 42 43 44 46 48 49 50 51 51 50 49 47 46 44 44 42 41 39 39 38 37 36 34 33 31 29 26 23 22 20 16 15 13 13 13 13 16 20 24 29
Wind_Direction
291 294 299 302 303 305 305 305 307 308 309 309 309 309 308 307 305 303 301 299 298 296 294 292 289 287 285 282 280 278 276 273 271 268 265 262 261 259 257 256 253 252 249
293 296 299 303 305 307 310 311 311 312 313 312 312 311 310 309 307 305 303 301 299 297 295 293 290 288 286 284 282 279 276 274 271 269 265 262 260 259 256 254 252 250 247
293 299 302 305 309 312 314 315 315 315 314 313 312 311 310 309 307 305 303 302 300 298 297 295 292 289 287 284 282 280 277 274 272 269 266 263 260 258 257 254 250 248 245
297 302 305 307 311 314 315 315 315 314 313 313 312 310 308 307 306 304 303 302 301 299 296 295 293 290 287 285 282 280 277 274 272 269 267 263 260 258 255 254 250 247 243
298 303 305 307 311 313 314 314 314 313 313 313 313 312 311 310 308 307 306 304 303 301 299 297 294 291 288 285 283 280 277 274 271 269 266 263 260 257 254 252 250 247 242
296 299 302 304 308 311 312 314 315 316 316 316 316 316 316 316 314 313 311 309 307 305 303 300 297 294 290 286 283 280 276 273 270 268 265 263 260 257 254 251 247 245 242
294 296 299 303 309 313 317 319 321 322 322 323 323 323 322 322 321 319 317 314 311 309 306 303 299 296 293 289 285 280 276 272 269 267 264 262 259 256 253 250 246 244 241
299 300 304 309 316 321 325 327 328 329 330 330 330 329 327 326 325 323 320 318 315 312 309 306 302 298 294 290 286 281 277 272 269 266 263 260 258 255 252 249 246 242 240
304 307 313 319 325 329 331 333 335 336 335 334 333 332 330 329 327 326 324 322 319 315 312 308 304 300 296 292 287 282 277 273 269 265 262 259 257 254 251 248 244 241 239
312 317 323 328 331 334 336 338 339 339 337 335 333 333 332 331 330 328 326 323 321 318 314 309 305 301 297 292 288 283 278 274 270 266 262 258 255 252 250 247 244 241 237
321 326 331 334 336 338 339 340 339 337 336 335 333 333 332 331 330 329 327 325 322 319 315 311 306 302 297 292 289 284 280 276 271 268 263 258 254 251 249 247 244 241 237
329 333 336 337 338 339 340 339 337 336 335 334 334 332 332 331 330 329 327 326 323 320 316 312 307 303 299 295 291 286 281 277 273 268 264 259 255 251 249 247 244 241 237
333 335 336 336 338 338 338 338 337 336 335 334 333 332 331 330 330 329 327 326 323 321 317 313 309 305 300 296 292 287 282 278 273 269 265 260 255 252 249 246 243 241 238
333 334 334 335 336 337 337 336 336 335 334 333 332 332 331 330 329 329 328 326 324 322 318 314 311 307 303 299 294 289 285 280 275 270 266 261 257 252 249 246 243 240 237
331 332 332 334 335 336 336 335 334 334 333 333 332 332 331 330 329 329 327 325 324 322 318 315 312 309 305 301 296 292 287 282 277 272 267 263 258 253 249 246 242 239 236
328 329 331 333 334 334 334 334 333 333 333 332 332 332 331 330 329 329 327 325 323 321 319 316 313 310 307 302 298 293 289 284 279 273 269 264 259 255 250 245 242 238 235
326 327 330 331 332 332 332 332 332 332 332 332 332 332 331 330 329 328 327 325 323 321 319 317 314 311 308 305 301 296 292 287 282 276 271 266 260 256 251 245 241 238 235
325 327 328 329 330 330 330 330 331 331 331 331 331 331 331 330 330 328 327 325 324 322 320 318 316 313 310 307 304 299 295 289 284 278 272 266 262 257 252 247 242 238 234
323 325 327 327 328 328 328 329 330 330 330 330 330 330 330 330 329 329 327 326 325 323 321 320 318 315 313 309 305 301 298 294 288 281 274 267 262 257 252 247 242 237 233
322 323 324 325 326 327 327 328 329 330 330 330 330 330 329 329 328 328 327 326 326 324 323 321 320 318 315 312 308 304 301 297 291 285 278 270 263 257 252 246 240 237 233
320 321 322 323 325 326 327 327 328 329 330 330 329 329 328 328 328 328 327 327 326 325 324 323 322 321 318 315 311 308 304 299 294 289 282 273 265 259 253 246 240 236 232
318 320 321 322 324 325 326 327 328 329 330 330 329 329 328 328 328 328 328 328 327 327 326 325 324 323 321 319 315 311 308 303 299 293 285 276 268 262 255 247 241 235 231
317 319 320 322 323 325 326 327 328 329 330 330 329 329 329 328 328 328 328 329 329 328 328 327 326 326 324 322 319 315 311 307 302 297 290 281 272 264 256 248 241 235 230
317 318 320 321 323 324 326 327 328 328 329 329 328 328 329 329 328 328 329 329 329 329 329 329 329 329 327 325 322 319 316 313 307 303 297 287 275 266 257 247 239 233 227
316 318 319 321 323 324 326 326 327 327 327 327 327 328 328 329 329 329 330 330 330 330 331 331 331 332 331 329 327 325 322 319 315 309 303 293 284 273 260 246 236 229 223
315 317 319 320 321 323 325 325 325 326 326 327 327 328 328 329 329 330 331 331 331 332 332 333 334 334 334 333 331 329 327 326 322 316 310 302 293 279 259 240 229 223 219